This is the latest recevied weather packets stored in our database for station/object W0AKY-13. If no packets are shown the sender has not sent any weather packets the latest 1 day(s).
| Time | Temp. | Humidity | Pressure | Rain* | Wind** | Luminosity | Snow |
|---|---|---|---|---|---|---|---|
| 1778038210 | 10.56° C | 46% | 1015.9 hPa | 0 mm | 0.45 m/s, 0° | 0 W/m² | - |
| 1778037907 | 10.56° C | 45% | 1015.8 hPa | 0 mm | 0.89 m/s, 8° | 0 W/m² | - |
| 1778037603 | 10.56° C | 45% | 1015.8 hPa | 0 mm | 0.45 m/s, 6° | 0 W/m² | - |
| 1778037301 | 10° C | 47% | 1015.7 hPa | 0 mm | 0 m/s | 0 W/m² | - |
| 1778036998 | 10.56° C | 47% | 1015.7 hPa | 0 mm | 0.45 m/s, 33° | 0 W/m² | - |
| 1778036696 | 10.56° C | 45% | 1015.6 hPa | 0 mm | 0 m/s | 0 W/m² | - |
| 1778036393 | 10.56° C | 48% | 1015.5 hPa | 0 mm | 0 m/s | 0 W/m² | - |
| 1778036089 | 10.56° C | 49% | 1015.6 hPa | 0 mm | 0 m/s | 0 W/m² | - |
| 1778035786 | 10.56° C | 48% | 1015.8 hPa | 0 mm | 0.45 m/s, 6° | 0 W/m² | - |
| 1778035483 | 10.56° C | 47% | 1015.3 hPa | 0 mm | 0 m/s | 0 W/m² | - |
| 1778035179 | 10.56° C | 45% | 1015.5 hPa | 0 mm | 0 m/s | 0 W/m² | - |
| 1778034876 | 10.56° C | 46% | 1015.2 hPa | 0 mm | 0.45 m/s, 40° | 0 W/m² | - |
| 1778034572 | 10.56° C | 44% | 1015.3 hPa | 0 mm | 0.45 m/s, 41° | 0 W/m² | - |
| 1778034270 | 10.56° C | 46% | 1015.2 hPa | 0 mm | 0.45 m/s, 13° | 0 W/m² | - |
| 1778033968 | 10.56° C | 45% | 1015.2 hPa | 0 mm | 0.45 m/s, 43° | 0 W/m² | - |
| 1778033665 | 10.56° C | 45% | 1014.9 hPa | 0 mm | 0 m/s | 0 W/m² | - |
| 1778033362 | 11.11° C | 45% | 1014.9 hPa | 0 mm | 0.45 m/s, 26° | 0 W/m² | - |
| 1778033060 | 11.11° C | 44% | 1014.8 hPa | 0 mm | 0 m/s | 0 W/m² | - |
| 1778032757 | 11.67° C | 42% | 1014.5 hPa | 0 mm | 0.45 m/s, 39° | 0 W/m² | - |
| 1778032454 | 11.67° C | 41% | 1014.2 hPa | 0 mm | 0.45 m/s, 41° | 0 W/m² | - |
| 1778032151 | 11.67° C | 42% | 1014.4 hPa | 0 mm | 0.45 m/s, 42° | 0 W/m² | - |
| 1778031848 | 11.67° C | 42% | 1014.2 hPa | 0 mm | 0.45 m/s, 36° | 0 W/m² | - |
| 1778031544 | 11.67° C | 40% | 1014.2 hPa | 0 mm | 0.45 m/s, 42° | 0 W/m² | - |
| 1778031243 | 11.67° C | 40% | 1014.3 hPa | 0 mm | 0.45 m/s, 44° | 0 W/m² | - |
| 1778030938 | 12.22° C | 40% | 1014.3 hPa | 0 mm | 0.45 m/s, 38° | 1 W/m² | - |
* Rain latest hour (hover to see other rain measurements)
** Current wind speed in m/s (hover to see current wind gust speed)